KJ7IVE-13 Weather Reports


time (UTC)temp
C
wind
direction
speed
KPH
gust
KPH
rain 1hr
cm
rain 24hr
cm
rain mn
cm
humidity
%
barometer
mb
20260502190115 20 265 4.8 4.8 0.00 0.00 0.00 10 1021.5
20260502185609 20 244 8.0 9.7 0.00 0.00 0.00 10 1021.7
20260502185106 20 267 9.7 11.3 0.00 0.00 0.00 10 1021.8
20260502184602 20 245 12.9 14.5 0.00 0.00 0.00 10 1021.8
20260502184058 20 201 3.2 3.2 0.00 0.00 0.00 10 1021.8
20260502183554 20 252 12.9 14.5 0.00 0.00 0.00 10 1021.8
20260502183050 20 246 12.9 12.9 0.00 0.00 0.00 10 1021.8
20260502182546 20 245 6.4 8.0 0.00 0.00 0.00 10 1021.8
20260502182041 20 267 11.3 11.3 0.00 0.00 0.00 10 1022.0
20260502181534 20 268 11.3 16.1 0.00 0.00 0.00 10 1021.9
20260502181032 20 205 3.2 4.8 0.00 0.00 0.00 10 1021.7
20260502180528 20 256 4.8 8.0 0.00 0.00 0.00 10 1021.9
20260502170442 19 168 8.0 11.3 0.00 0.00 0.00 10 1022.4
20260502163925 17 181 0.0 1.6 0.00 0.00 0.00 10 1022.4
20260502163421 17 248 4.8 4.8 0.00 0.00 0.00 10 1022.4
20260502162919 17 196 1.6 3.2 0.00 0.00 0.00 10 1022.3
20260502162416 17 213 3.2 3.2 0.00 0.00 0.00 10 1022.5
20260502161913 18 190 1.6 3.2 0.00 0.00 0.00 10 1022.4
20260502161409 17 206 1.6 1.6 0.00 0.00 0.00 10 1022.2
20260502160907 17 164 0.0 0.0 0.00 0.00 0.00 10 1022.2
20260502160405 17 95 4.8 4.8 0.00 0.00 0.00 10 1022.0
20260502152334 15 100 6.4 8.0 0.00 0.00 0.00 10 1022.4
20260502151831 15 52 6.4 9.7 0.00 0.00 0.00 10 1022.5
20260502151328 15 104 8.0 9.7 0.00 0.00 0.00 10 1022.5
20260502150825 14 132 1.6 3.2 0.00 0.00 0.00 10 1022.4
20260502150322 13 135 8.0 9.7 0.00 0.00 0.00 10 1022.5
20260502130710 8 151 3.2 3.2 0.00 0.00 0.00 10 1022.0
20260502130208 8 162 1.6 3.2 0.00 0.00 0.00 10 1022.0
20260502123654 9 176 1.6 1.6 0.00 0.00 0.00 10 1021.8
20260502123150 9 155 1.6 3.2 0.00 0.00 0.00 10 1022.0
20260502122647 9 144 3.2 3.2 0.00 0.00 0.00 10 1022.0
20260502122143 9 125 8.0 9.7 0.00 0.00 0.00 10 1021.8
20260502121642 9 119 8.0 9.7 0.00 0.00 0.00 10 1021.7
20260502121139 9 122 6.4 9.7 0.00 0.00 0.00 10 1021.7
20260502120635 9 123 6.4 8.0 0.00 0.00 0.00 10 1021.7
20260502120132 9 133 4.8 4.8 0.00 0.00 0.00 10 1021.6
20260502115630 9 105 8.0 9.7 0.00 0.00 0.00 10 1021.7
20260502115125 8 141 4.8 8.0 0.00 0.00 0.00 10 1021.9
20260502114622 8 126 6.4 8.0 0.00 0.00 0.00 10 1021.7
20260502114119 8 131 3.2 3.2 0.00 0.00 0.00 10 1021.7
20260502113617 8 114 4.8 4.8 0.00 0.00 0.00 10 1021.7
20260502113115 8 121 4.8 4.8 0.00 0.00 0.00 10 1021.7
20260502112612 8 130 3.2 3.2 0.00 0.00 0.00 10 1021.8
20260502112110 8 106 6.4 8.0 0.00 0.00 0.00 10 1021.7
20260502111607 8 98 6.4 8.0 0.00 0.00 0.00 10 1021.8
20260502111104 8 107 3.2 3.2 0.00 0.00 0.00 10 1021.7
20260502110602 7 105 3.2 4.8 0.00 0.00 0.00 10 1021.8
20260502110059 7 143 1.6 3.2 0.00 0.00 0.00 10 1022.2
20260502105556 7 120 1.6 3.2 0.00 0.00 0.00 10 1021.6
20260502105054 7 141 1.6 1.6 0.00 0.00 0.00 10 1021.7
20260502104551 7 185 1.6 1.6 0.00 0.00 0.00 10 1021.9
20260502104048 7 189 0.0 0.0 0.00 0.00 0.00 10 1022.0
20260502103546 6 190 0.0 0.0 0.00 0.00 0.00 10 1021.9
20260502103044 7 190 1.6 1.6 0.00 0.00 0.00 10 1021.9
20260502102540 7 178 0.0 0.0 0.00 0.00 0.00 10 1021.8
20260502102037 7 125 1.6 3.2 0.00 0.00 0.00 10 1021.8
20260502101535 7 164 1.6 3.2 0.00 0.00 0.00 10 1022.0
20260502101033 7 193 0.0 0.0 0.00 0.00 0.00 10 1021.9
20260502100531 7 159 0.0 0.0 0.00 0.00 0.00 10 1021.9
20260502091506 8 196 1.6 1.6 0.00 0.00 0.00 10 1021.6
20260502091003 9 183 0.0 0.0 0.00 0.00 0.00 10 1021.7
20260502090500 9 170 3.2 3.2 0.00 0.00 0.00 10 1021.6
20260502071354 10 155 0.0 0.0 0.00 0.00 0.00 10 1021.5
20260502070853 10 105 1.6 1.6 0.00 0.00 0.00 10 1021.4
20260502070350 11 119 1.6 3.2 0.00 0.00 0.00 10 1021.5
20260502065849 11 131 6.4 8.0 0.00 0.00 0.00 10 1021.4
20260502065347 10 127 4.8 8.0 0.00 0.00 0.00 10 1021.5
20260502064844 10 156 3.2 3.2 0.00 0.00 0.00 10 1021.4
20260502064342 10 131 4.8 8.0 0.00 0.00 0.00 10 1021.4
20260502063839 10 133 4.8 4.8 0.00 0.00 0.00 10 1021.4
20260502063337 10 172 6.4 8.0 0.00 0.00 0.00 10 1021.6
20260502062834 10 176 4.8 4.8 0.00 0.00 0.00 10 1021.4
20260502062331 10 189 1.6 3.2 0.00 0.00 0.00 10 1021.6
20260502061830 10 199 0.0 0.0 0.00 0.00 0.00 10 1021.6
20260502061327 10 207 1.6 1.6 0.00 0.00 0.00 10 1021.4
20260502060823 10 219 1.6 1.6 0.00 0.00 0.00 10 1021.2
20260502060318 11 270 9.7 12.9 0.00 0.00 0.00 10 1021.6
20260502055816 11 163 4.8 4.8 0.00 0.00 0.00 10 1021.4
20260502055314 11 154 4.8 4.8 0.00 0.00 0.00 10 1021.2
20260502054813 11 163 4.8 4.8 0.00 0.00 0.00 10 1021.5
20260502054310 11 134 9.7 11.3 0.00 0.00 0.00 10 1021.2
20260502053808 11 125 8.0 9.7 0.00 0.00 0.00 10 1021.2
20260502053304 11 142 4.8 4.8 0.00 0.00 0.00 10 1021.5
20260502052802 11 161 4.8 4.8 0.00 0.00 0.00 10 1021.5
20260502052300 11 149 6.4 11.3 0.00 0.00 0.00 10 1021.1
20260502051758 12 149 8.0 9.7 0.00 0.00 0.00 10 1021.1
20260502051256 12 158 8.0 9.7 0.00 0.00 0.00 10 1021.2
20260502050752 12 169 4.8 4.8 0.00 0.00 0.00 10 1021.5
20260502050248 12 154 4.8 4.8 0.00 0.00 0.00 10 1021.1
20260502045746 12 170 3.2 3.2 0.00 0.00 0.00 10 1021.4
20260502045242 12 168 3.2 4.8 0.00 0.00 0.00 10 1021.2
20260502044739 12 164 3.2 4.8 0.00 0.00 0.00 10 1021.4
20260502044235 12 145 4.8 8.0 0.00 0.00 0.00 10 1021.4
20260502043733 12 129 8.0 12.9 0.00 0.00 0.00 10 1021.2
20260502043230 12 151 3.2 3.2 0.00 0.00 0.00 10 1021.4
20260502042729 12 146 6.4 8.0 0.00 0.00 0.00 10 1021.1
20260502042227 12 145 9.7 11.3 0.00 0.00 0.00 10 1021.0
20260502041725 12 146 6.4 9.7 0.00 0.00 0.00 10 1021.1
20260502041222 12 145 6.4 8.0 0.00 0.00 0.00 10 1020.7
20260502040719 12 168 4.8 4.8 0.00 0.00 0.00 10 1021.0
20260502040216 12 163 4.8 4.8 0.00 0.00 0.00 10 1021.1
20260502035712 12 156 3.2 4.8 0.00 0.00 0.00 10 1020.7
20260502035209 13 161 8.0 9.7 0.00 0.00 0.00 10 1020.9
20260502034706 13 158 9.7 11.3 0.00 0.00 0.00 10 1020.6
20260502034204 13 168 6.4 8.0 0.00 0.00 0.00 10 1020.8
20260502033702 13 173 4.8 4.8 0.00 0.00 0.00 10 1020.6
20260502033200 13 179 3.2 3.2 0.00 0.00 0.00 10 1020.4
20260502032656 13 175 1.6 3.2 0.00 0.00 0.00 10 1020.4
20260502032152 13 174 3.2 3.2 0.00 0.00 0.00 10 1020.7
20260502031650 13 174 1.6 1.6 0.00 0.00 0.00 10 1020.1
20260502031148 13 173 3.2 8.0 0.00 0.00 0.00 10 1020.3
20260502030646 13 189 3.2 4.8 0.00 0.00 0.00 10 1020.1
20260502030144 14 201 3.2 4.8 0.00 0.00 0.00 10 1020.2
20260502025641 13 202 4.8 8.0 0.00 0.00 0.00 10 1020.1
20260502025139 13 218 4.8 4.8 0.00 0.00 0.00 10 1020.0
20260502024636 13 212 4.8 4.8 0.00 0.00 0.00 10 1019.8
20260502024134 14 221 8.0 9.7 0.00 0.00 0.00 10 1020.1
20260502023632 14 226 4.8 4.8 0.00 0.00 0.00 10 1019.9
20260502023129 14 238 8.0 9.7 0.00 0.00 0.00 10 1019.9
20260502022626 14 228 8.0 11.3 0.00 0.00 0.00 10 1019.9
20260502022123 15 239 4.8 8.0 0.00 0.00 0.00 10 1019.9
20260502021620 15 242 6.4 8.0 0.00 0.00 0.00 10 1019.9
20260502021117 15 245 6.4 8.0 0.00 0.00 0.00 10 1019.7
20260502020615 15 251 4.8 4.8 0.00 0.00 0.00 10 1019.8
20260502020111 15 240 8.0 9.7 0.00 0.00 0.00 10 1019.5
20260502015609 16 270 9.7 11.3 0.00 0.00 0.00 10 1019.7
20260502015106 16 254 8.0 8.0 0.00 0.00 0.00 10 1019.8
20260502014603 16 238 9.7 11.3 0.00 0.00 0.00 10 1019.8
20260502014100 16 239 8.0 9.7 0.00 0.00 0.00 10 1019.8
20260502013555 16 243 9.7 12.9 0.00 0.00 0.00 10 1019.7
20260502013051 16 267 12.9 16.1 0.00 0.00 0.00 10 1019.7
20260502012549 16 245 11.3 14.5 0.00 0.00 0.00 10 1019.5
20260502012047 17 253 14.5 16.1 0.00 0.00 0.00 10 1019.5
20260502011543 17 244 12.9 14.5 0.00 0.00 0.00 10 1019.5
20260502011039 18 251 4.8 4.8 0.00 0.00 0.00 10 1019.4
20260502010537 18 261 14.5 17.7 0.00 0.00 0.00 10 1019.3
20260502010033 18 275 9.7 11.3 0.00 0.00 0.00 10 1019.7
20260502005531 18 257 11.3 14.5 0.00 0.00 0.00 10 1019.7
20260502005029 18 244 4.8 4.8 0.00 0.00 0.00 10 1019.5
20260502004524 18 270 8.0 9.7 0.00 0.00 0.00 10 1019.8
20260502004021 19 307 9.7 14.5 0.00 0.00 0.00 10 1019.5
20260502003519 18 301 6.4 9.7 0.00 0.00 0.00 10 1019.7
20260502003015 18 323 14.5 16.1 0.00 0.00 0.00 10 1019.7
20260502002512 18 310 20.9 27.4 0.00 0.00 0.00 10 1019.8
20260502002009 18 276 8.0 11.3 0.00 0.00 0.00 10 1019.8
20260502001507 18 254 17.7 24.1 0.00 0.00 0.00 10 1019.8
20260502001004 18 284 19.3 33.8 0.00 0.00 0.00 10 1019.7
20260502000503 18 306 22.5 32.2 0.00 0.00 0.00 10 1020.1
20260501235958 18 264 16.1 22.5 0.00 0.00 0.00 10 1019.7
20260501235454 18 303 16.1 16.1 0.00 0.00 0.00 10 1019.5
20260501234949 18 304 14.5 16.1 0.00 0.00 0.00 10 1019.7
20260501234446 18 326 19.3 22.5 0.00 0.00 0.00 10 1020.0
20260501233945 18 340 9.7 11.3 0.00 0.00 0.00 10 1019.9
20260501233443 18 275 14.5 16.1 0.00 0.00 0.00 10 1019.9
20260501232938 18 284 12.9 16.1 0.00 0.00 0.00 10 1019.9
20260501232435 18 269 9.7 11.3 0.00 0.00 0.00 10 1019.9
20260501231932 18 326 17.7 22.5 0.00 0.00 0.00 10 1019.8
20260501231431 18 318 11.3 12.9 0.00 0.00 0.00 10 1019.9
20260501230928 18 266 4.8 8.0 0.00 0.00 0.00 10 1020.2
20260501230427 18 317 12.9 16.1 0.00 0.00 0.00 10 1020.1
20260501225924 18 345 11.3 14.5 0.00 0.00 0.00 10 1020.0
20260501225422 18 342 11.3 14.5 0.00 0.00 0.00 10 1020.3
20260501224917 18 273 11.3 14.5 0.00 0.00 0.00 10 1020.3
20260501224415 18 310 12.9 17.7 0.00 0.00 0.00 10 1020.3
20260501223912 18 267 16.1 20.9 0.00 0.00 0.00 10 1020.1
20260501223408 18 296 14.5 16.1 0.00 0.00 0.00 10 1020.3
20260501222904 18 285 9.7 14.5 0.00 0.00 0.00 10 1020.3
20260501222401 18 318 9.7 11.3 0.00 0.00 0.00 10 1020.6
20260501221857 18 315 11.3 14.5 0.00 0.00 0.00 10 1020.6
20260501221355 18 320 16.1 17.7 0.00 0.00 0.00 10 1020.8
20260501220853 17 297 20.9 22.5 0.00 0.00 0.00 10 1020.8
20260501220350 18 278 16.1 20.9 0.00 0.00 0.00 10 1020.9
20260501215846 17 255 14.5 16.1 0.00 0.00 0.00 10 1020.6
20260501215343 17 333 16.1 20.9 0.00 0.00 0.00 10 1020.6
20260501214838 18 258 11.3 14.5 0.00 0.00 0.00 10 1021.0
20260501214334 17 290 11.3 17.7 0.00 0.00 0.00 10 1020.7
20260501213830 18 316 11.3 12.9 0.00 0.00 0.00 10 1020.9
20260501213327 17 268 12.9 17.7 0.00 0.00 0.00 10 1020.8
20260501212822 17 244 22.5 27.4 0.00 0.00 0.00 10 1020.8
20260501212319 17 284 14.5 20.9 0.00 0.00 0.00 10 1021.1
20260501211816 17 283 19.3 24.1 0.00 0.00 0.00 10 1021.1
20260501211314 17 255 14.5 22.5 0.00 0.00 0.00 10 1021.0
20260501210810 17 303 9.7 11.3 0.00 0.00 0.00 10 1021.0
20260501210307 17 274 14.5 16.1 0.00 0.00 0.00 10 1021.0
20260501205803 17 289 14.5 17.7 0.00 0.00 0.00 10 1021.4
20260501205300 17 228 16.1 22.5 0.00 0.00 0.00 10 1021.1
20260501204757 17 293 11.3 16.1 0.00 0.00 0.00 10 1021.1
20260501204254 18 307 11.3 16.1 0.00 0.00 0.00 10 1021.1
20260501203750 17 303 17.7 24.1 0.00 0.00 0.00 10 1021.0
20260501203248 17 335 19.3 22.5 0.00 0.00 0.00 10 1021.0
20260501202745 17 274 11.3 11.3 0.00 0.00 0.00 10 1021.1
20260501202241 17 312 17.7 20.9 0.00 0.00 0.00 10 1021.0
20260501201738 17 307 11.3 14.5 0.00 0.00 0.00 10 1021.1
20260501201235 17 326 16.1 17.7 0.00 0.00 0.00 10 1021.0
20260501200732 17 289 4.8 4.8 0.00 0.00 0.00 10 1021.4
20260501200229 17 293 9.7 11.3 0.00 0.00 0.00 10 1021.1
20260501195726 17 147 0.0 1.6 0.00 0.00 0.00 10 1021.0
20260501195222 17 262 8.0 9.7 0.00 0.00 0.00 10 1021.2
20260501194719 18 272 8.0 11.3 0.00 0.00 0.00 10 1021.5
20260501194214 17 220 4.8 8.0 0.00 0.00 0.00 10 1021.5
20260501193711 17 186 4.8 4.8 0.00 0.00 0.00 10 1021.4
20260501193210 17 15 9.7 14.5 0.00 0.00 0.00 10 1021.5
20260501192707 17 331 14.5 16.1 0.00 0.00 0.00 10 1021.4
20260501192204 17 270 6.4 9.7 0.00 0.00 0.00 10 1021.4
20260501191701 17 187 3.2 3.2 0.00 0.00 0.00 10 1021.5
20260501191158 16 311 4.8 8.0 0.00 0.00 0.00 10 1021.7
20260501190654 17 311 12.9 16.1 0.00 0.00 0.00 10 1021.6